Weather History for KMCB - September, 2011

Change the Weather History Date:

Saturday, September 3, 2011

  Actual Average Record
Temperature  
Mean Temperature 74 °F -  
Max Temperature 77 °F 89 °F 102 °F (2000)
Min Temperature 73 °F 68 °F 56 °F (1952)
Cooling Degree Days 9    
Growing Degree Days 24 (Base 50)    
Moisture  
Dew Point 73 °F    
Average Humidity 96    
Maximum Humidity 100    
Minimum Humidity 91    
Precipitation  
Precipitation 1.88 in - - ()
Sea Level Pressure  
Sea Level Pressure 29.64 in    
Wind  
Wind Speed 10 mph (ENE)    
Max Wind Speed 15 mph    
Max Gust Speed 29 mph    
Visibility 6 miles    
Events Rain    
Averages and records for this station are not official NWS values.
T = Trace of Precipitation, MM = Missing Value Source: NWS Daily Summary

Daily Weather History Graph

Daily Weather History Graph

Search for Another Location

Airport or City:

Trip Planner

Search our weather history database for the weather conditions in past years. The results will help you decide how hot, cold, wet, or windy it might be!

Date:

Astronomy

Sep. 03, 2011 Rise Set
Actual Time 6:38 AM CDT 7:23 PM CDT
Civil Twilight 6:14 AM CDT 7:47 PM CDT
Nautical Twilight 5:45 AM CDT 8:16 PM CDT
Astronomical Twilight 5:15 AM CDT 8:46 PM CDT
Moon 12:49 PM CDT (9/3) 11:19 PM CDT (9/3)
Length of Visible Light 13h 33m
Length of Day
12h 44m
Waxing Crescent, 39% of the Moon is Illuminated
Sep 3
Waxing Crescent
Sep 4
First Quarter
Sep 12
Full
Sep 20
Last Quarter
Sep 27
New

Hourly Weather History & Observations

Time (CDT) Temp. Dew Point Humidity Pressure Visibility Wind Dir Wind Speed Gust Speed Precip Events Conditions
1:17 AM 73.4 °F 71.6 °F 94% 29.81 in 6.0 mi ENE 9.2 mph 18.4 mph 0.02 in Rain Rain
1:53 AM 73.9 °F 72.0 °F 93% 29.78 in 8.0 mi Variable 6.9 mph - 0.04 in Rain Light Rain
2:50 AM 73.4 °F 73.4 °F 100% 29.76 in 9.0 mi East 10.4 mph 19.6 mph 0.04 in Rain Light Rain
3:41 AM 73.4 °F 73.4 °F 100% 29.74 in 7.0 mi East 8.1 mph - 0.04 in Rain Light Rain
3:53 AM 73.9 °F 73.0 °F 97% 29.72 in 8.0 mi East 6.9 mph 20.7 mph 0.05 in Rain Light Rain
4:36 AM 73.4 °F 73.4 °F 100% 29.74 in 5.0 mi East 9.2 mph 17.3 mph 0.07 in Rain Rain
4:45 AM 73.4 °F 73.4 °F 100% 29.74 in 6.0 mi ENE 8.1 mph 19.6 mph 0.09 in Rain Rain
4:53 AM 73.9 °F 73.0 °F 97% 29.72 in 8.0 mi East 9.2 mph - 0.10 in Rain Rain
5:08 AM 73.4 °F 73.4 °F 100% 29.73 in 7.0 mi ENE 10.4 mph 18.4 mph 0.02 in Rain Rain
5:15 AM 73.4 °F 73.4 °F 100% 29.73 in 7.0 mi East 8.1 mph 18.4 mph 0.04 in Rain Rain
5:32 AM 73.4 °F 73.4 °F 100% 29.73 in 5.0 mi East 10.4 mph 19.6 mph 0.08 in Rain Rain
6:07 AM 73.4 °F 73.4 °F 100% 29.72 in 10.0 mi Variable 6.9 mph 18.4 mph 0.00 in Rain Light Rain
6:14 AM 73.4 °F 73.4 °F 100% 29.72 in 9.0 mi ENE 9.2 mph - 0.01 in Rain Light Rain
6:42 AM 73.4 °F 73.4 °F 100% 29.71 in 10.0 mi ENE 9.2 mph 19.6 mph 0.03 in Rain Light Rain
6:53 AM 73.9 °F 73.0 °F 97% 29.70 in 7.0 mi ENE 9.2 mph 19.6 mph 0.04 in Rain Rain
7:53 AM 73.9 °F 73.0 °F 97% 29.69 in 7.0 mi ENE 9.2 mph 20.7 mph 0.16 in Rain Light Rain
8:17 AM 73.4 °F 73.4 °F 100% 29.70 in 4.0 mi ENE 10.4 mph 23.0 mph 0.05 in Rain Rain
8:24 AM 73.4 °F 73.4 °F 100% 29.71 in 4.0 mi East 10.4 mph 20.7 mph 0.07 in Rain Rain
8:51 AM 73.4 °F 73.4 °F 100% 29.70 in 3.0 mi East 11.5 mph 21.9 mph 0.18 in Rain Heavy Rain
8:53 AM 73.9 °F 73.0 °F 97% 29.68 in 3.0 mi East 15.0 mph 21.9 mph 0.19 in Rain Rain
9:33 AM 73.4 °F 73.4 °F 100% 29.67 in 4.0 mi ENE 12.7 mph 25.3 mph 0.12 in Rain Rain
9:53 AM 75.0 °F 73.9 °F 96% 29.66 in 5.0 mi ENE 9.2 mph 28.8 mph 0.15 in Rain Rain
10:53 AM 75.0 °F 73.0 °F 94% 29.67 in 5.0 mi East 13.8 mph 24.2 mph 0.11 in Rain Rain
12:33 PM 75.2 °F 73.4 °F 94% 29.65 in 9.0 mi ENE 11.5 mph 21.9 mph 0.01 in   Overcast
12:53 PM 75.9 °F 73.0 °F 91% 29.63 in 10.0 mi ENE 9.2 mph 23.0 mph 0.01 in   Overcast
1:07 PM 75.2 °F 73.4 °F 94% 29.64 in 10.0 mi ENE 11.5 mph 23.0 mph 0.00 in Rain Light Rain
1:53 PM 75.0 °F 73.0 °F 94% 29.60 in 10.0 mi ENE 15.0 mph 26.5 mph 0.01 in   Overcast
2:35 PM 75.2 °F 73.4 °F 94% 29.63 in 1.8 mi East 9.2 mph 23.0 mph 0.12 in Rain Heavy Rain
2:53 PM 75.0 °F 73.0 °F 94% 29.60 in 6.0 mi East 10.4 mph 25.3 mph 0.17 in Rain Light Rain
3:06 PM 75.2 °F 73.4 °F 94% 29.62 in 1.8 mi East 13.8 mph 24.2 mph 0.03 in Rain Rain
3:16 PM 75.2 °F 73.4 °F 94% 29.61 in 1.0 mi East 12.7 mph 26.5 mph 0.15 in Rain Heavy Rain
3:25 PM 75.2 °F 73.4 °F 94% 29.61 in 1.5 mi East 11.5 mph 23.0 mph 0.19 in Rain Heavy Rain
3:31 PM 75.2 °F 73.4 °F 94% 29.60 in 2.5 mi East 11.5 mph 19.6 mph 0.21 in Rain Rain
3:36 PM 75.2 °F 73.4 °F 94% 29.60 in 4.0 mi East 13.8 mph 25.3 mph 0.21 in Rain Light Rain
3:53 PM 75.0 °F 73.0 °F 94% 29.59 in 10.0 mi East 11.5 mph 26.5 mph 0.21 in Rain Light Rain
4:53 PM 75.0 °F 73.0 °F 94% 29.57 in 4.0 mi ENE 11.5 mph 25.3 mph 0.04 in Rain Light Rain
5:53 PM 75.0 °F 73.0 °F 94% 29.55 in 10.0 mi ENE 11.5 mph 27.6 mph 0.02 in   Unknown
6:08 PM 75.2 °F 73.4 °F 94% 29.57 in 10.0 mi ENE 15.0 mph 28.8 mph N/A   Overcast
6:53 PM 73.0 °F 72.0 °F 96% 29.55 in 3.0 mi ENE 11.5 mph 25.3 mph 0.05 in Rain Light Rain
6:55 PM 73.4 °F 71.6 °F 94% 29.57 in 2.5 mi ENE 12.7 mph 25.3 mph 0.00 in Rain Rain
7:03 PM 73.4 °F 71.6 °F 94% 29.57 in 3.0 mi ENE 9.2 mph 25.3 mph 0.01 in Rain Light Rain
7:10 PM 73.4 °F 71.6 °F 94% 29.57 in 5.0 mi ENE 10.4 mph 23.0 mph 0.01 in Rain Light Rain
7:31 PM 73.4 °F 71.6 °F 94% 29.57 in 6.0 mi ENE 11.5 mph 18.4 mph 0.01 in Rain Light Rain
7:53 PM 73.0 °F 72.0 °F 96% 29.55 in 10.0 mi ENE 12.7 mph 23.0 mph 0.01 in   Overcast
8:53 PM 73.9 °F 72.0 °F 93% 29.56 in 5.0 mi East 9.2 mph 23.0 mph 0.02 in Rain Light Rain
9:53 PM 73.9 °F 73.0 °F 97% 29.55 in 5.0 mi Variable 4.6 mph 19.6 mph 0.06 in Rain Light Rain
10:09 PM 73.4 °F 73.4 °F 100% 29.56 in 6.0 mi East 12.7 mph 19.6 mph 0.01 in Rain Light Rain
10:53 PM 75.0 °F 73.9 °F 96% 29.55 in 8.0 mi East 12.7 mph 19.6 mph 0.07 in Rain Light Rain
11:09 PM 75.2 °F 73.4 °F 94% 29.56 in 2.5 mi East 8.1 mph 20.7 mph 0.08 in Rain Heavy Rain
11:30 PM 75.2 °F 73.4 °F 94% 29.56 in 1.8 mi Variable 5.8 mph 18.4 mph 0.32 in Rain Heavy Rain
11:38 PM 75.2 °F 73.4 °F 94% 29.55 in 2.5 mi East 11.5 mph 21.9 mph 0.36 in Rain Rain
11:45 PM 75.2 °F 73.4 °F 94% 29.55 in 5.0 mi East 12.7 mph 24.2 mph 0.37 in Rain Light Rain
11:53 PM 75.0 °F 73.9 °F 96% 29.54 in 8.0 mi East 12.7 mph 24.2 mph 0.37 in Rain Light Rain